NEPALISAT-1

Last updated on Wed Jul 07 2021 01:02:11 GMT+0100 (British Summer Time)

1 44331U 98067QG 21187.40316262 .00074395 00000-0 39638-3 0 9998 2 44331 51.6299 186.9564 0005841 19.5872 340.5353 15.79729124117142

Satellite not in orbit